[[{"header":{"parameterUnit":"m.s-1","parameterCategory":1,"la1":30.2991,"la2":30.254,"lo1":-89.0895,"lo2":-89.0444,"dy":0.0017,"dx":0.0017,"nx":28,"ny":28,"refTime":"2024-05-31T03:00:00:Z","depth":0,"parameterNumber":2,"parameterNumberName":"U-component_of_WINDS"},"data":[0,0,0,0,0,0,0,0,0,0,0,0,0,0,0,0,0,0,0,0,0,0,0,0,0,0,0,0,0,0,0,0,0,0,0,0,0,0,0,0,0,0,0,0,0,0,0,0,0,0,0,0,0,0,0,0,0,0,-1.667,-1.6674,0,-1.7057,-1.7062,-1.7066,-1.7308,-1.731,-1.7311,-1.7312,-1.7712,-1.7721,-1.7731,0,0,0,0,0,0,0,0,0,0,0,0,0,-1.6142,-1.615,-1.6669,-1.6674,-1.6679,-1.7056,-1.7062,-1.7067,-1.7308,-1.731,-1.7311,-1.7313,-1.7709,-1.772,-1.7731,0,0,0,0,0,0,0,0,0,0,0,0,0,-1.6434,-1.6153,-1.6668,-1.6845,-1.6864,-1.7055,-1.7062,-1.7069,-1.7308,-1.731,-1.7312,-1.7314,-1.7705,-1.7719,-1.7733,-1.778,0,0,-1.7776,-1.7782,0,0,0,0,0,0,0,0,-1.6417,-1.6454,-1.6814,-1.6833,-1.6855,-1.7137,-1.7023,-1.7307,-1.7307,-1.714,-1.7312,-1.7315,-1.7519,-1.7549,-1.7617,-1.7799,-1.7816,-1.7777,-1.7786,-1.7792,-1.7796,0,0,0,0,0,0,0,-1.6397,-1.6438,-1.6823,-1.6819,-1.6844,-1.6906,-1.695,-1.7078,-1.7314,-1.7154,-1.7173,-1.7215,-1.7531,-1.7603,-1.7628,-1.7822,-1.7777,-1.779,-1.7798,-1.7804,-1.8064,-1.8063,0,0,0,0,0,0,-1.6348,-1.642,-1.6811,-1.6835,-1.6637,-1.6914,-1.6963,-1.7044,-1.7313,-1.7356,-1.7213,-1.7225,-1.7578,-1.7612,-1.7643,-1.7718,-1.7792,-1.7805,-1.7813,-1.8066,-1.8064,-1.8062,0,0,0,0,0,0,-1.6336,-1.6381,-1.6795,-1.6632,-1.669,-1.6921,-1.701,-1.7051,-1.7123,-1.7357,-1.7401,-1.7243,-1.7581,-1.7623,-1.7745,-1.7735,-1.7811,-1.7824,-1.8067,-1.8065,-1.8063,-1.7865,0,0,0,0,0,0,-1.632,-1.6375,-1.6394,-1.6631,-1.6697,-1.6888,-1.701,-1.7057,-1.7147,-1.7166,-1.7397,-1.7437,-1.7586,-1.7722,-1.7758,-1.7756,-1.7835,-1.8069,-1.8066,-1.8064,-1.7873,-1.7856,-1.7841,0,0,0,0,0,-1.63,-1.6323,-1.6394,-1.644,-1.6726,-1.6887,-1.6925,-1.7095,-1.7145,-1.7167,-1.7317,-1.743,-1.773,-1.7733,-1.7776,-1.7777,-1.8071,-1.8067,-1.8064,-1.7881,-1.786,-1.7842,0,0,0,0,0,0,-1.6081,-1.6358,-1.6439,-1.6539,-1.6687,-1.6927,-1.6961,-1.7067,-1.7205,-1.7217,-1.7423,-1.7473,-1.7574,-1.7688,-1.7686,-1.7838,-1.7913,-1.7918,-1.7759,-1.7741,-1.7726,-1.7697,-1.7847,0,0,0,0,0,-1.6044,-1.615,-1.6387,-1.6452,-1.6523,-1.6727,-1.6804,-1.6922,-1.7084,-1.7149,-1.7308,-1.7462,-1.7592,-1.7673,-1.7805,-1.7891,-1.7946,-1.7913,-1.7897,-1.7883,-1.7885,-1.7941,-1.7929,-1.8051,-1.8051,-1.8051,0,0,-1.5969,-1.6133,-1.6188,-1.6412,-1.6541,-1.6648,-1.6779,-1.6886,-1.6968,-1.7166,-1.729,-1.7412,-1.7598,-1.7701,-1.7755,-1.78,-1.7863,-1.7878,-1.7865,-1.7876,-1.7936,-1.7924,-1.7914,-1.8048,-1.8049,-1.8049,0,0,-1.5888,-1.6022,-1.6092,-1.6218,-1.6411,-1.6548,-1.6563,-1.6788,-1.6877,-1.7004,-1.7155,-1.7256,-1.7474,-1.7601,-1.7693,-1.7659,-1.7769,-1.7697,-1.7614,-1.7665,-1.7656,-1.7648,-1.7638,-1.7631,-1.7698,-1.7697,-1.7697,0,-1.5771,-1.5937,-1.6115,-1.6214,-1.6308,-1.6491,-1.6564,-1.6678,-1.6904,-1.6966,-1.7012,-1.7291,-1.7429,-1.7566,-1.7557,-1.7626,-1.7652,-1.7672,-1.7642,-1.7637,-1.7633,-1.7625,-1.762,-1.7688,-1.7689,-1.769,-1.7691,0,-1.5785,-1.5897,-1.593,-1.6143,-1.6242,-1.6327,-1.6519,-1.6598,-1.6707,-1.6838,-1.6967,-1.7139,-1.7309,-1.735,-1.7458,-1.7503,-1.7524,-1.7603,-1.7684,-1.7608,-1.7604,-1.7602,-1.7673,-1.7677,-1.768,-1.7682,0,0,-1.5578,-1.5886,-1.5896,-1.5995,-1.6221,-1.6312,-1.6406,-1.6572,-1.6636,-1.6785,-1.6871,-1.7051,-1.7126,-1.7231,-1.7355,-1.7399,-1.7363,-1.7475,-1.7482,-1.7449,-1.7425,-1.7365,-1.7358,-1.7437,-1.7437,-1.7437,-1.741,0,-1.5531,-1.5708,-1.587,-1.5989,-1.6096,-1.627,-1.6352,-1.65,-1.6625,-1.6736,-1.6876,-1.7,-1.7089,-1.7154,-1.7206,-1.7356,-1.7362,-1.736,-1.752,-1.7523,-1.7468,-1.7356,-1.7293,-1.7259,-1.7409,-1.7409,-1.7409,0,-1.5501,-1.5642,-1.5769,-1.5985,-1.6036,-1.6106,-1.6272,-1.6374,-1.6546,-1.6635,-1.6751,-1.6881,-1.699,-1.7058,-1.7212,-1.7207,-1.7282,-1.7366,-1.7369,-1.7391,-1.7462,-1.7377,-1.7253,-1.7247,-1.7408,-1.7409,-1.7409,0,-1.5339,-1.556,-1.5666,-1.5745,-1.5999,-1.6044,-1.6152,-1.6326,-1.6415,-1.656,-1.6621,-1.6776,-1.6861,-1.6979,-1.7148,-1.7182,-1.7285,-1.7367,-1.7363,-1.7359,-1.7378,-1.7375,-1.7265,-1.7423,-1.7423,-1.7423,-1.7423,0,-1.5271,-1.5343,-1.5596,-1.5661,-1.5747,-1.5934,-1.6015,-1.6139,-1.6291,-1.6385,-1.6545,-1.663,-1.6847,-1.6958,-1.7091,-1.7199,-1.7236,-1.7312,-1.7347,-1.7299,-1.7289,-1.7351,-1.7358,-1.7422,-1.7422,-1.7423,-1.7423,0,-1.5106,-1.5278,-1.5405,-1.5633,-1.5693,-1.5746,-1.5943,-1.6014,-1.6147,-1.6264,-1.6302,-1.6513,-1.6652,-1.6831,-1.7027,-1.7117,-1.721,-1.7263,-1.7151,-1.7172,-1.7159,-1.7158,-1.7086,-1.7087,-1.7241,-1.7239,-1.7238,0,-1.5052,-1.5111,-1.5345,-1.5418,-1.5521,-1.5637,-1.5728,-1.5914,-1.6003,-1.6203,-1.625,-1.64,-1.6531,-1.6745,-1.6917,-1.7068,-1.7127,-1.7091,-1.7151,-1.71,-1.7128,-1.7123,-1.713,-1.7076,-1.7074,-1.7072,-1.707,0,-1.4939,-1.5021,-1.5145,-1.5299,-1.5403,-1.5534,-1.5672,-1.5723,-1.5939,-1.603,-1.6173,-1.6274,-1.6474,-1.6622,-1.6795,-1.6909,-1.7026,-1.7049,-1.7057,-1.7009,-1.6942,-1.698,-1.7112,-1.7051,-1.7053,-1.7054,-1.7055,-1.7056,-1.483,-1.489,-1.5064,-1.5198,-1.5321,-1.5446,-1.5523,-1.5666,-1.5787,-1.5963,-1.6066,-1.6205,-1.6377,-1.6621,-1.673,-1.6843,-1.6888,-1.6898,-1.6901,-1.6901,-1.6886,-1.6922,-1.6875,-1.6876,-1.6877,-1.6878,-1.6878,0,-1.4727,-1.4846,-1.4967,-1.5154,-1.5259,-1.5357,-1.5515,-1.5597,-1.5716,-1.5866,-1.599,-1.6155,-1.6299,-1.6481,-1.6639,-1.6694,-1.6752,-1.6729,-1.6728,-1.6753,-1.6837,-1.6815,-1.668,-1.668,-1.668,-1.668,-1.668,-1.668,-1.4685,-1.4793,-1.4895,-1.5066,-1.5187,-1.5323,-1.5405,-1.5521,-1.5642,-1.5817,-1.5937,-1.6054,-1.6218,-1.6388,-1.6525,-1.6575,-1.6627,-1.6588,-1.6654,-1.6729,-1.6747,-1.6764,-1.6744,-1.6597,-1.6597,-1.6562,-1.6561,-1.6561]},{"header":{"parameterUnit":"m.s-1","parameterCategory":1,"la1":30.2991,"la2":30.254,"lo1":-89.0895,"lo2":-89.0444,"dy":0.0017,"dx":0.0017,"nx":28,"ny":28,"refTime":"2024-05-31T03:00:00:Z","depth":0,"parameterNumber":3,"parameterNumberName":"V-component_of_WINDS"},"data":[0,0,0,0,0,0,0,0,0,0,0,0,0,0,0,0,0,0,0,0,0,0,0,0,0,0,0,0,0,0,0,0,0,0,0,0,0,0,0,0,0,0,0,0,0,0,0,0,0,0,0,0,0,0,0,0,0,0,4.8997,4.8998,0,4.9051,4.9052,4.9052,4.9005,4.9003,4.9001,4.8999,4.9053,4.9056,4.906,0,0,0,0,0,0,0,0,0,0,0,0,0,4.8848,4.8851,4.8997,4.8998,4.8998,4.9051,4.9052,4.9053,4.9005,4.9003,4.9001,4.8998,4.9052,4.9056,4.906,0,0,0,0,0,0,0,0,0,0,0,0,0,4.8908,4.8852,4.8997,4.8981,4.898,4.9051,4.9052,4.9053,4.9006,4.9003,4.9,4.8997,4.9051,4.9056,4.906,4.9149,0,0,4.9075,4.9077,0,0,0,0,0,0,0,0,4.8905,4.8914,4.8983,4.8982,4.8982,4.9018,4.9019,4.9085,4.9007,4.8996,4.8999,4.8996,4.9044,4.9049,4.9066,4.9151,4.9154,4.9076,4.9079,4.9081,4.9082,0,0,0,0,0,0,0,4.8901,4.8911,4.9018,4.8984,4.8983,4.897,4.8975,4.9031,4.9036,4.8997,4.8994,4.9001,4.9043,4.9061,4.9067,4.9155,4.9076,4.908,4.9083,4.9085,4.931,4.9313,0,0,0,0,0,0,4.8899,4.8908,4.9017,4.902,4.8935,4.8975,4.8981,4.9009,4.9035,4.9036,4.9003,4.8998,4.9054,4.9061,4.9068,4.917,4.9081,4.9085,4.9088,4.9307,4.9311,4.9314,0,0,0,0,0,0,4.8896,4.8909,4.9014,4.8963,4.8976,4.8981,4.9013,4.9012,4.903,4.904,4.904,4.9021,4.9052,4.9061,4.9128,4.9171,4.9088,4.9092,4.9303,4.9308,4.9312,4.9376,0,0,0,0,0,0,4.8892,4.8908,4.8943,4.8964,4.8979,4.9075,4.9016,4.9015,4.9039,4.9033,4.9057,4.9058,4.9051,4.9121,4.9133,4.9176,4.9096,4.9299,4.9305,4.9311,4.937,4.9382,4.9392,0,0,0,0,0,4.8887,4.896,4.8945,4.8959,4.9023,4.9078,4.9085,4.9076,4.9043,4.9077,4.9082,4.9057,4.9165,4.9128,4.9141,4.9187,4.9297,4.9304,4.931,4.9365,4.938,4.9392,0,0,0,0,0,0,4.8945,4.8963,4.8947,4.9029,4.9052,4.907,4.9112,4.9093,4.9126,4.9119,4.9106,4.9111,4.9181,4.9191,4.915,4.9271,4.9225,4.9235,4.9262,4.9276,4.9287,4.9282,4.91,0,0,0,0,0,4.8967,4.9011,4.9024,4.9095,4.9107,4.9108,4.9132,4.9122,4.9145,4.9155,4.9165,4.9188,4.9226,4.9252,4.9289,4.9371,4.9374,4.9409,4.942,4.9429,4.9437,4.9477,4.9492,4.9337,4.9336,4.9336,0,0,4.9014,4.9029,4.9058,4.9107,4.9124,4.9167,4.9117,4.9167,4.9198,4.9162,4.9225,4.9233,4.9257,4.9331,4.9364,4.9342,4.9481,4.9438,4.9445,4.9448,4.9486,4.9501,4.9514,4.9341,4.934,4.934,0,0,4.912,4.9138,4.9197,4.9214,4.9239,4.9238,4.9252,4.9272,4.9276,4.9339,4.9311,4.9348,4.9416,4.9433,4.945,4.9559,4.9536,4.9571,4.9629,4.9669,4.9681,4.9692,4.9727,4.974,4.958,4.958,4.958,0,4.9175,4.9241,4.923,4.928,4.9301,4.927,4.9327,4.9345,4.9381,4.9395,4.9369,4.945,4.9465,4.954,4.9566,4.9583,4.9596,4.9568,4.968,4.9691,4.9701,4.9734,4.9748,4.9584,4.9583,4.9583,4.9582,0,4.9304,4.935,4.9395,4.9429,4.9455,4.9509,4.9504,4.9531,4.9519,4.952,4.9582,4.9598,4.9634,4.9652,4.9641,4.9725,4.9709,4.9682,4.9635,4.9719,4.975,4.9763,4.9589,4.9588,4.9587,4.9586,0,0,4.9451,4.9475,4.9491,4.9504,4.9528,4.9562,4.9614,4.9649,4.9671,4.9696,4.9737,4.9793,4.9767,4.9787,4.9777,4.9812,4.9892,4.978,4.978,4.9797,4.998,4.9998,5.0014,4.9877,4.988,4.9882,4.9977,0,4.9556,4.9645,4.9634,4.9718,4.9758,4.9727,4.977,4.9789,4.979,4.9823,4.9825,4.9863,4.9828,4.9839,4.9872,4.9875,4.9928,4.9868,4.9912,4.9914,4.9904,5.0031,5.0051,5.014,4.9989,4.9992,4.9993,0,4.9691,4.9718,4.9806,4.9819,4.9835,4.9875,4.9904,4.9937,4.9956,4.9954,4.9974,4.9958,5.0006,4.9959,5.0024,4.9984,5.0001,5.0004,5.0008,5.0009,4.9957,5.0033,5.0169,5.0181,5.0013,5.0011,5.001,0,4.9784,4.9843,4.9902,4.9915,4.9933,4.9961,4.9969,4.9985,5.0006,5.0031,5.0043,5.0075,5.0091,5.0115,5.0106,5.0073,5.0171,5.0125,5.0169,5.0169,5.019,5.0188,5.0328,5.0205,5.0205,5.0205,5.0205,0,4.9901,4.9955,4.9943,4.998,5.0038,5.0024,5.0082,5.0086,5.01,5.0135,5.0111,5.0144,5.0131,5.0162,5.0156,5.0208,5.0217,5.0215,5.0212,5.0215,5.0215,5.0225,5.0217,5.0208,5.0208,5.0207,5.0206,0,5.0015,5.001,5.0071,5.0082,5.0086,5.0128,5.0136,5.0169,5.0167,5.0211,5.0221,5.0219,5.0254,5.0248,5.0288,5.0283,5.0347,5.0338,5.0341,5.0337,5.0381,5.0375,5.0529,5.0547,5.0416,5.0417,5.0419,0,5.0088,5.0129,5.0142,5.0163,5.0173,5.0209,5.0228,5.0216,5.0237,5.0259,5.0288,5.0321,5.0346,5.0404,5.0406,5.0435,5.0424,5.0476,5.0429,5.0429,5.0421,5.0417,5.042,5.0485,5.0486,5.0488,5.0489,0,5.0218,5.0213,5.0242,5.027,5.0294,5.0316,5.0335,5.0353,5.0341,5.0367,5.0402,5.0421,5.046,5.0492,5.0519,5.0526,5.0504,5.0504,5.0515,5.0518,5.0516,5.0514,5.0363,5.05,5.0499,5.0498,5.0497,5.0497,5.0312,5.0344,5.0358,5.039,5.0403,5.042,5.045,5.0451,5.048,5.051,5.0501,5.054,5.0553,5.0586,5.0597,5.0626,5.0607,5.0624,5.0628,5.0631,5.0635,5.0513,5.0631,5.0631,5.0631,5.063,5.063,0,5.0438,5.0444,5.0474,5.05,5.0524,5.0502,5.0521,5.0542,5.0577,5.0592,5.0616,5.0655,5.0685,5.0687,5.0715,5.0737,5.0728,5.0745,5.0742,5.0743,5.0653,5.0638,5.0752,5.0752,5.0752,5.0752,5.0752,5.0752,5.0506,5.0558,5.0553,5.061,5.0616,5.0653,5.0665,5.068,5.0691,5.0734,5.0759,5.076,5.0769,5.0796,5.0822,5.0821,5.0831,5.0851,5.0847,5.0762,5.075,5.0738,5.0725,5.0855,5.0855,5.0935,5.0935,5.0936]}]]